Tracking 19212 objects as of 16-Jul-2018
HD Live streaming from Space Station
objects crossing your sky now

NSS 513 (INTELSAT 513)

Track NSS 513 (INTELSAT 513) now!
NSS 513 (INTELSAT 513) is classified as:


NORAD ID: 19121
Int'l Code: 1988-040A
Perigee: 36,221.6 km
Apogee: 36,330.4 km
Inclination: 15.4 °
Period: 1,460.8 minutes
Semi major axis: 42647 km
RCS: 9.2727 m2 (large)
Launch date: May 17, 1988
Source: Netherlands (NETH)
Launch site: FRENCH GUIANA (FRGUI)
aabbcc
Your satellite tracking list
Your tracking list is empty




NASA's NSSDC Master Catalog

Two Line Element Set (TLE):
1 19121U 88040A   18195.69863184 -.00000181 +00000-0 +00000-0 0  9994
2 19121 015.3825 012.4397 0012753 028.0269 332.0728 00.98575665086012
Source of the keplerian elements: AFSPC